SCP
0 0 0 0 0 0 0 0 0 0 0 1 1 1 1 2 2 3 3 3 3 5 7 6 5 5 7 9 10 9 8 7 6 5 3 2 2 2 2 2 3 4 4 3
0 0 0 0 0 0 0 0 0 0 0 0 1 1 1 2 2 2 3 3 3 5 6 6 4 4 6 9 10 10 9 8 7 6 4 3 2 2 2 2 4 5 4 4
0 0 0 0 0 0 0 0 0 0 0 0 1 1 2 2 2 2 2 3 3 4 5 5 4 4 6 8 10 10 10 9 8 7 5 4 3 2 2 3 4 6 5 4
0 0 0 0 0 0 0 0 0 0 0 0 1 1 1 2 2 2 3 3 4 4 5 4 3 3 4 6 8 10 10 9 7 6 5 4 3 3 2 3 4 5 5 4
0 0 0 0 0 0 0 0 0 0 0 0 1 1 1 2 2 2 3 3 4 4 4 4 3 3 3 4 6 8 9 8 7 6 4 4 3 3 3 3 3 4 4 4
0 0 0 0 0 0 0 0 0 0 0 0 0 1 1 1 2 3 3 3 3 4 4 4 3 3 3 4 5 6 6 7 7 6 5 4 4 3 3 3 3 3 4 4
0 0 0 0 0 0 0 0 0 0 0 0 0 1 1 2 3 4 3 2 2 3 3 3 3 3 3 4 5 5 6 7 8 7 6 5 4 4 3 3 4 4 4 4
0 0 0 0 0 0 0 0 0 0 0 0 0 1 2 3 4 4 3 2 2 2 3 3 4 3 4 4 5 5 6 7 8 9 8 7 6 5 4 4 5 5 5 5
0 0 0 0 0 0 0 0 0 0 0 0 1 1 2 3 4 4 4 3 2 3 3 4 4 4 4 4 5 5 5 7 8 9 9 9 7 6 6 6 6 5 5 5
0 0 0 0 0 0 0 0 0 0 0 0 1 1 2 3 3 4 4 3 3 3 3 4 4 4 5 5 6 6 6 7 8 8 9 8 8 7 7 7 7 7 6 7
0 0 0 0 0 0 0 0 0 0 0 0 1 1 2 3 3 3 3 3 3 4 4 4 4 4 5 6 7 7 7 8 8 8 8 8 7 7 7 8 8 9 10 10
0 0 0 0 0 0 0 0 0 0 1 0 1 1 3 4 4 3 3 3 4 4 4 4 4 4 5 6 7 8 9 9 9 9 8 8 7 7 7 7 8 10 12 13
0 0 0 0 0 0 0 0 0 0 1 1 1 2 3 4 4 4 4 4 4 4 4 4 4 5 6 8 9 9 9 10 11 10 9 8 7 7 6 7 8 9 11 13
0 0 0 0 0 0 0 0 0 0 1 1 1 1 3 3 3 4 4 4 3 3 4 5 5 6 8 10 11 11 10 11 12 11 10 9 8 7 7 7 8 8 9 10
0 0 0 0 0 0 0 0 0 0 0 1 1 2 3 3 3 4 5 5 4 4 4 5 6 7 8 11 13 13 13 12 12 12 12 11 9 8 8 8 8 8 8 8
0 0 0 0 0 0 0 0 0 0 0 1 2 3 4 4 4 4 5 5 5 5 5 5 6 7 8 10 11 12 13 13 12 12 12 13 12 10 9 8 8 9 9 9
0 0 0 0 0 0 0 0 0 0 0 1 2 4 5 5 5 5 5 5 6 6 6 5 6 7 8 8 9 9 10 12 12 11 11 12 14 13 12 10 9 10 10 10
0 0 0 0 0 0 0 0 0 1 2 2 4 5 5 6 6 6 6 6 7 8 7 7 7 8 8 8 8 8 8 10 11 11 9 9 11 13 14 13 12 11 11 11
0 0 0 0 0 0 0 0 1 3 4 4 4 4 5 6 6 6 7 8 8 8 8 8 8 8 8 7 7 8 8 9 10 11 10 9 9 11 13 14 14 13 12 11
0 1 0 0 0 1 1 1 2 3 4 4 3 3 4 4 5 6 7 8 8 7 6 7 7 7 8 8 8 9 9 9 9 10 10 10 9 10 11 12 13 13 11 11
1 1 1 0 1 2 2 2 2 4 4 3 2 3 4 4 5 5 7 8 8 6 5 6 7 8 9 9 9 9 9 8 8 9 9 9 10 10 10 10 11 11 10 10
1 1 1 1 1 2 3 3 3 4 4 3 2 3 4 5 6 6 7 9 9 7 6 6 7 9 9 9 9 9 8 8 9 9 9 9 9 9 10 10 11 11 11 10
1 1 1 1 1 2 3 4 3 4 4 3 3 4 4 5 7 7 7 7 8 8 7 6 7 9 10 9 9 8 7 8 9 10 9 8 8 9 10 10 10 11 11 11
2 1 1 1 1 2 3 3 3 3 4 4 5 6 6 5 6 6 6 6 7 9 9 8 7 8 10 10 9 8 7 8 9 10 10 10 10 10 9 8 8 8 8 9
1 1 2 2 2 2 2 2 2 3 3 4 5 6 7 6 5 5 6 7 7 8 9 9 8 8 9 9 9 8 8 8 9 11 13 13 11 9 7 6 5 4 4 5
1 1 2 3 3 2 2 2 2 2 2 3 5 6 6 6 5 5 7 8 7 7 8 8 8 7 8 9 9 8 8 8 9 12 14 14 11 7 5 4 3 2 2 2
Wind_Speed
11 9 8 7 4 4 6 6 4 2 2 1 3 5 7 7 7 9 10 10 10 11 11 11 11 11 11 9 8 6 6 5 4 3 3 2 2 2 2 2 3 4 3 2
11 9 8 7 5 6 8 9 5 3 1 1 2 3 5 6 8 8 10 10 10 11 11 11 11 11 11 10 8 7 6 6 5 3 3 2 2 2 2 2 3 4 3 3
12 6 6 8 8 9 9 8 7 5 5 3 2 3 5 7 8 8 9 10 11 11 12 12 11 11 11 11 10 8 7 6 6 4 3 3 2 2 2 2 2 3 3 3
10 9 9 9 8 10 9 6 8 9 8 6 5 3 5 7 8 8 9 9 9 10 11 12 12 11 11 11 10 8 8 7 6 5 5 5 4 4 3 2 3 3 4 4
9 9 10 10 8 9 10 9 10 12 11 10 7 4 3 6 8 8 9 9 9 9 9 12 12 11 10 10 10 9 8 7 7 6 5 4 4 3 3 3 3 3 3 3
12 9 10 10 9 10 10 11 12 12 11 10 7 5 4 4 5 8 9 8 8 9 9 10 11 10 9 9 9 9 9 8 7 7 6 5 4 3 3 3 3 3 3 3
13 11 10 9 10 8 9 9 7 7 7 6 6 5 3 3 3 6 9 8 8 8 9 9 8 9 8 8 8 8 8 8 8 8 7 6 5 4 4 4 4 4 3 3
11 9 8 8 8 9 9 10 8 8 8 7 6 3 4 6 4 5 6 9 9 9 9 9 8 8 7 8 7 7 8 7 8 8 7 6 6 5 4 4 3 3 3 3
8 7 6 7 8 10 10 9 11 11 11 10 5 2 2 6 6 5 6 7 8 7 8 7 8 7 6 5 5 6 7 7 7 7 7 6 6 5 4 4 4 3 3 3
9 9 8 7 9 10 10 10 7 8 7 9 6 5 2 5 5 3 4 6 6 6 7 7 7 6 6 6 5 4 4 5 5 5 6 6 5 5 4 4 4 4 3 3
11 11 10 9 9 8 8 10 9 8 9 10 7 2 4 5 5 3 3 5 5 5 5 5 6 6 6 6 5 4 4 3 3 4 4 4 5 5 5 5 4 4 4 3
7 10 10 11 9 8 10 9 9 8 8 10 10 3 4 5 2 3 3 6 6 6 4 4 5 5 5 6 5 5 4 4 3 2 2 3 3 4 5 5 5 4 4 4
5 8 10 10 8 7 9 9 10 10 10 10 10 3 4 3 3 4 5 5 5 5 5 4 4 4 4 4 3 3 4 4 3 3 2 2 3 3 4 4 4 4 4 4
6 10 12 12 9 8 10 11 11 11 10 10 10 5 2 0 1 3 4 3 4 4 4 4 4 3 2 2 2 2 3 3 3 3 3 2 3 3 3 3 3 4 4 4
8 12 13 14 14 13 13 13 12 11 11 11 10 6 3 0 2 2 3 2 3 4 3 3 3 3 2 2 1 1 1 1 2 2 3 3 2 2 2 3 3 4 4 5
7 10 12 14 16 15 14 13 12 10 9 10 10 5 3 2 2 2 2 2 3 3 2 2 3 3 2 2 1 1 0 0 1 2 2 2 2 2 2 2 3 3 3 3
7 8 11 13 13 14 13 9 8 7 7 8 8 5 3 3 3 2 2 2 2 2 2 2 2 2 2 2 1 1 1 0 1 1 1 2 2 3 3 3 2 2 3 3
8 7 7 11 12 15 7 4 6 8 7 6 5 4 4 3 3 2 2 2 1 0 1 1 1 2 2 2 2 1 1 1 1 1 1 1 2 2 2 2 2 2 2 3
7 6 8 9 13 12 7 5 6 8 6 4 5 5 4 4 3 2 4 5 3 2 3 1 0 1 2 1 1 1 1 1 1 1 2 2 1 2 2 2 2 2 2 2
9 7 9 10 12 10 4 4 5 7 5 4 5 4 4 4 3 3 6 5 4 3 2 2 1 1 2 2 1 0 1 0 1 2 2 2 2 2 2 2 2 2 2 2
9 10 11 12 12 6 5 6 6 6 4 6 6 5 5 5 5 4 5 5 4 4 3 2 2 2 2 2 1 1 1 2 2 2 2 2 2 2 2 2 1 2 2 2
9 8 8 9 10 5 5 4 4 3 5 6 7 7 6 5 5 5 5 4 4 3 3 2 2 2 2 2 2 1 1 2 1 2 2 2 1 2 1 1 1 2 2 2
6 5 4 4 3 4 6 5 5 5 5 6 6 6 6 6 5 5 5 4 4 4 4 3 2 2 3 2 1 0 1 1 1 1 1 1 1 1 1 1 1 1 2 2
3 4 5 4 2 2 3 5 6 6 5 5 5 5 5 4 4 4 4 4 4 4 2 2 3 2 3 2 2 1 1 1 1 2 1 1 1 0 1 1 0 0 1 1
5 4 5 6 3 2 3 4 5 4 4 4 5 5 5 5 5 4 4 4 4 4 3 2 2 2 2 2 2 2 1 1 2 2 2 1 1 1 1 1 1 1 1 0
6 5 4 4 4 3 4 4 5 4 4 4 4 4 3 3 4 4 3 3 3 3 2 1 2 2 2 2 2 2 1 1 1 1 1 2 1 1 1 2 1 4 3 3
Wind_Direction
240 244 255 269 287 304 300 293 285 250 166 170 115 136 147 156 158 154 156 158 162 164 161 158 159 154 152 152 153 156 162 162 172 172 180 180 180 173 171 174 156 155 173 179
245 241 258 282 296 282 285 286 291 323 347 225 151 152 157 169 167 161 159 161 162 162 158 157 161 163 161 160 162 162 166 168 181 181 181 185 178 182 183 169 154 163 177 191
245 256 258 265 267 270 273 286 310 312 296 285 244 226 169 175 161 157 162 162 164 166 164 163 168 169 166 167 171 173 174 175 183 181 182 189 171 186 183 181 173 179 186 200
251 256 260 265 270 281 284 304 305 291 281 273 258 249 183 174 169 166 160 159 160 166 170 167 171 174 174 173 174 171 169 174 178 184 191 191 187 191 196 183 186 185 191 202
245 248 256 258 264 276 290 300 289 282 274 269 259 272 202 177 170 169 160 159 158 164 167 169 171 174 177 173 173 173 168 175 179 189 196 198 201 198 192 186 193 191 196 207
256 249 254 262 261 260 274 277 271 262 264 261 256 256 232 188 174 159 152 153 157 159 160 162 165 165 173 171 169 170 168 175 180 188 197 201 209 213 208 203 195 198 206 209
239 239 242 252 258 251 263 273 275 269 256 253 261 249 190 141 137 143 144 147 152 151 153 153 160 165 169 171 172 168 162 174 183 189 197 200 208 216 221 220 212 211 217 212
241 227 225 236 249 265 261 265 271 282 291 294 281 250 151 144 138 130 133 140 143 149 149 150 157 163 169 174 175 170 166 175 185 189 197 201 206 214 221 224 226 218 219 220
268 250 232 236 248 255 260 265 281 279 280 284 283 287 162 142 128 135 131 129 134 143 139 146 150 151 159 167 168 173 166 175 186 192 193 200 204 212 220 220 218 233 222 223
271 275 252 235 239 235 255 272 281 281 285 284 268 257 196 144 144 146 134 120 124 127 134 150 152 154 163 164 155 145 151 176 184 189 202 201 201 209 220 236 230 229 238 233
264 265 260 244 240 254 251 256 264 277 283 287 283 266 131 141 156 152 122 118 120 116 122 130 143 150 154 149 148 159 155 156 176 195 204 212 200 204 214 222 233 234 240 242
258 267 266 262 248 252 255 255 263 272 276 282 286 286 130 136 153 127 121 105 103 114 116 115 124 131 144 151 159 168 171 175 178 183 196 206 206 200 213 221 226 230 229 234
294 270 264 254 237 237 256 256 261 272 273 273 278 269 146 131 119 110 98 110 114 112 116 122 121 124 136 145 158 173 182 181 180 185 202 205 215 210 217 227 230 230 232 236
265 261 267 270 276 265 257 262 266 268 272 277 280 277 295 65 65 106 112 130 128 121 112 113 115 113 112 120 135 154 178 182 178 183 197 210 224 232 234 235 234 234 234 235
255 260 268 275 276 274 270 266 267 267 271 277 284 279 279 17 98 112 127 149 133 123 118 107 112 116 110 108 116 114 143 151 171 184 202 213 221 233 242 242 240 239 238 240
243 268 276 273 272 270 268 266 264 265 274 281 290 295 332 5 56 92 121 165 141 130 127 134 123 130 133 133 130 127 113 106 153 190 209 207 216 222 236 242 243 245 245 248
262 263 270 271 275 275 262 264 269 273 281 283 285 301 330 354 15 14 356 252 149 161 171 182 147 137 154 172 171 167 162 208 224 215 220 211 214 221 228 244 242 246 250 244
249 265 266 268 270 264 271 286 282 281 288 310 326 347 350 354 360 357 332 333 78 329 113 133 158 158 167 176 179 174 177 199 236 256 264 244 238 241 235 232 235 241 252 252
246 247 261 265 263 256 259 288 294 287 286 344 355 350 359 354 342 360 20 5 3 36 45 27 218 173 147 148 151 173 201 194 244 269 287 286 271 264 251 244 246 241 239 244
240 225 245 257 267 266 271 309 309 286 262 16 356 353 353 333 316 353 358 10 357 4 60 38 8 69 88 77 90 118 270 249 279 295 302 304 295 278 269 261 253 241 229 231
241 234 236 253 259 262 319 325 305 279 337 357 354 354 349 348 354 349 3 18 358 358 29 48 22 57 74 56 84 54 344 306 308 313 311 308 295 275 262 259 246 231 229 227
250 246 239 248 255 258 356 349 345 359 7 359 4 2 1 5 8 356 6 14 2 2 12 23 38 51 62 57 60 40 339 311 341 326 306 303 300 284 285 265 239 226 224 222
251 266 270 280 284 30 30 36 37 33 26 11 3 4 9 8 4 3 8 6 11 28 16 16 36 55 63 56 59 147 290 340 332 297 289 293 308 328 334 262 238 231 227 231
272 313 287 277 231 38 25 21 32 30 24 12 0 4 14 14 0 6 14 11 18 27 25 24 28 45 56 49 32 11 7 353 302 288 275 268 260 245 21 7 329 295 295 277
308 287 278 280 316 2 17 14 13 26 28 13 10 11 14 14 9 11 16 24 15 5 16 23 36 36 29 33 24 4 345 304 278 274 260 243 231 212 133 86 11 350 29 243
286 294 291 309 351 334 337 350 347 360 10 6 12 15 10 4 1 7 10 25 14 349 354 17 40 45 30 20 18 8 345 317 286 275 283 269 240 204 177 155 95 42 52 73